[[{"header":{"parameterUnit":"m.s-1","parameterCategory":1,"la1":30.2991,"la2":30.254,"lo1":-89.0895,"lo2":-89.0444,"dy":0.0017,"dx":0.0017,"nx":28,"ny":28,"refTime":"2025-09-17T09:00:00:Z","depth":0,"parameterNumber":2,"parameterNumberName":"U-component_of_WINDS"},"data":[0,0,0,0,0,0,0,0,0,0,0,0,0,0,0,0,0,0,0,0,0,0,0,0,0,0,0,0,0,0,0,0,0,0,0,0,0,0,0,0,0,0,0,0,0,0,0,0,0,0,0,0,0,0,0,0,0,0,-1.2052,-1.2052,0,-1.2096,-1.2096,-1.2097,-1.2058,-1.2057,-1.2055,-1.2054,-1.2101,-1.2103,-1.2106,0,0,0,0,0,0,0,0,0,0,0,0,0,-1.1938,-1.194,-1.2052,-1.2052,-1.2053,-1.2096,-1.2096,-1.2097,-1.2058,-1.2057,-1.2055,-1.2053,-1.21,-1.2103,-1.2106,0,0,0,0,0,0,0,0,0,0,0,0,0,-1.1985,-1.1941,-1.2052,-1.2039,-1.2038,-1.2095,-1.2096,-1.2097,-1.2059,-1.2056,-1.2054,-1.2052,-1.2099,-1.2103,-1.2107,-1.218,0,0,-1.2119,-1.2121,0,0,0,0,0,0,0,0,-1.1982,-1.1989,-1.204,-1.204,-1.2039,-1.2069,-1.2073,-1.2125,-1.2059,-1.2051,-1.2053,-1.2051,-1.2092,-1.2097,-1.211,-1.2182,-1.2184,-1.212,-1.2122,-1.2124,-1.2125,0,0,0,0,0,0,0,-1.1979,-1.1987,-1.2069,-1.2041,-1.204,-1.2032,-1.2036,-1.2083,-1.2085,-1.2052,-1.2049,-1.2055,-1.2092,-1.2106,-1.2111,-1.2185,-1.212,-1.2123,-1.2126,-1.2127,-1.232,-1.2323,0,0,0,0,0,0,-1.1977,-1.1985,-1.2068,-1.2071,-1.2004,-1.2036,-1.204,-1.2062,-1.2084,-1.2085,-1.2057,-1.2053,-1.2101,-1.2106,-1.2113,-1.2201,-1.2124,-1.2128,-1.213,-1.2317,-1.2321,-1.2324,0,0,0,0,0,0,-1.1975,-1.1985,-1.2066,-1.2027,-1.2037,-1.204,-1.2065,-1.2064,-1.2079,-1.2088,-1.2088,-1.2071,-1.2099,-1.2107,-1.2164,-1.2202,-1.213,-1.2133,-1.2314,-1.2318,-1.2322,-1.2377,0,0,0,0,0,0,-1.1972,-1.1984,-1.2011,-1.2028,-1.2039,-1.2116,-1.2067,-1.2067,-1.2086,-1.2081,-1.2102,-1.2103,-1.2098,-1.2158,-1.2168,-1.2206,-1.2137,-1.2311,-1.2316,-1.2321,-1.2372,-1.2382,-1.2391,0,0,0,0,0,-1.1968,-1.2025,-1.2013,-1.2023,-1.2073,-1.2118,-1.2124,-1.2117,-1.2089,-1.2117,-1.2123,-1.2102,-1.2196,-1.2164,-1.2175,-1.2215,-1.2309,-1.2315,-1.232,-1.2367,-1.238,-1.2391,0,0,0,0,0,0,-1.2013,-1.2027,-1.2014,-1.2078,-1.2097,-1.2111,-1.2146,-1.213,-1.2158,-1.2153,-1.2143,-1.2148,-1.2208,-1.2217,-1.2181,-1.2287,-1.2248,-1.2256,-1.228,-1.2292,-1.2301,-1.2299,-1.214,0,0,0,0,0,-1.2031,-1.2066,-1.2076,-1.2132,-1.2142,-1.2143,-1.2162,-1.2154,-1.2174,-1.2182,-1.2192,-1.2213,-1.2247,-1.227,-1.2301,-1.2372,-1.2377,-1.2405,-1.2415,-1.2423,-1.2431,-1.2471,-1.2484,-1.2343,-1.2343,-1.2343,0,0,-1.2068,-1.2079,-1.2102,-1.2141,-1.2155,-1.2193,-1.215,-1.219,-1.2218,-1.2189,-1.2243,-1.2251,-1.2273,-1.2338,-1.2367,-1.2347,-1.2471,-1.2431,-1.2437,-1.2441,-1.2478,-1.2492,-1.2503,-1.2347,-1.2346,-1.2346,0,0,-1.2154,-1.2166,-1.2214,-1.2229,-1.225,-1.225,-1.2262,-1.2279,-1.2283,-1.2337,-1.2316,-1.2349,-1.2408,-1.2425,-1.2442,-1.2535,-1.2518,-1.2546,-1.2597,-1.2636,-1.2647,-1.2657,-1.2692,-1.2705,-1.2553,-1.2554,-1.2554,0,-1.2197,-1.2252,-1.2241,-1.2284,-1.2303,-1.2276,-1.2326,-1.2341,-1.2372,-1.2386,-1.2364,-1.2437,-1.2451,-1.252,-1.2542,-1.2556,-1.257,-1.2544,-1.2646,-1.2656,-1.2665,-1.2698,-1.2711,-1.2557,-1.2556,-1.2556,-1.2556,0,-1.2304,-1.2343,-1.2379,-1.241,-1.2432,-1.2478,-1.2476,-1.25,-1.2491,-1.2494,-1.255,-1.2565,-1.26,-1.2615,-1.2607,-1.2684,-1.2671,-1.2648,-1.2608,-1.2682,-1.2713,-1.2726,-1.2562,-1.256,-1.2559,-1.2559,0,0,-1.2421,-1.2445,-1.2459,-1.2473,-1.2495,-1.2525,-1.257,-1.2604,-1.2626,-1.2648,-1.2687,-1.2737,-1.2716,-1.2735,-1.2728,-1.2762,-1.2837,-1.2734,-1.2735,-1.2754,-1.2925,-1.2943,-1.2958,-1.2825,-1.2827,-1.2829,-1.2923,0,-1.2509,-1.2587,-1.258,-1.2655,-1.2691,-1.2667,-1.2706,-1.2725,-1.2729,-1.2761,-1.2765,-1.2802,-1.277,-1.2782,-1.2814,-1.2821,-1.2871,-1.2814,-1.2863,-1.2865,-1.2859,-1.2974,-1.2993,-1.3081,-1.2935,-1.2937,-1.2939,0,-1.2622,-1.2649,-1.2727,-1.2745,-1.276,-1.2795,-1.2826,-1.2856,-1.2877,-1.2878,-1.2899,-1.2887,-1.2934,-1.2892,-1.2958,-1.2919,-1.2938,-1.2945,-1.2948,-1.2954,-1.2907,-1.2984,-1.3109,-1.3123,-1.2957,-1.2956,-1.2954,0,-1.2702,-1.2757,-1.2811,-1.2823,-1.2845,-1.2871,-1.2881,-1.2899,-1.2921,-1.2948,-1.2962,-1.2994,-1.3012,-1.3038,-1.3035,-1.3005,-1.3103,-1.306,-1.3106,-1.3106,-1.3129,-1.3128,-1.326,-1.3139,-1.3139,-1.3138,-1.3138,0,-1.2802,-1.2851,-1.2847,-1.2881,-1.2936,-1.2926,-1.2981,-1.2989,-1.3006,-1.3041,-1.3022,-1.3056,-1.3049,-1.3084,-1.3082,-1.3137,-1.3145,-1.3148,-1.3148,-1.3151,-1.3151,-1.3165,-1.3159,-1.3142,-1.3141,-1.3141,-1.314,0,-1.29,-1.2899,-1.2957,-1.2972,-1.2977,-1.3017,-1.3031,-1.3064,-1.3066,-1.3111,-1.3121,-1.3126,-1.3165,-1.3164,-1.3209,-1.3208,-1.3277,-1.3268,-1.327,-1.3269,-1.3315,-1.3311,-1.3462,-1.3482,-1.3346,-1.3348,-1.3349,0,-1.2964,-1.3002,-1.3021,-1.3043,-1.3055,-1.3091,-1.3113,-1.3105,-1.3129,-1.3156,-1.3185,-1.3223,-1.3253,-1.3317,-1.3325,-1.336,-1.3353,-1.3403,-1.3358,-1.3361,-1.3356,-1.3354,-1.3358,-1.3413,-1.3414,-1.3415,-1.3416,0,-1.308,-1.3078,-1.3109,-1.314,-1.3166,-1.3191,-1.3213,-1.3233,-1.3228,-1.3256,-1.3295,-1.3319,-1.3364,-1.3403,-1.3436,-1.3448,-1.3432,-1.343,-1.3443,-1.3448,-1.3448,-1.345,-1.3296,-1.3427,-1.3426,-1.3425,-1.3425,-1.3424,-1.3164,-1.3197,-1.3216,-1.3252,-1.3268,-1.329,-1.3321,-1.3327,-1.336,-1.3397,-1.3391,-1.3436,-1.3457,-1.35,-1.3515,-1.3551,-1.3533,-1.3551,-1.3556,-1.3561,-1.3567,-1.3441,-1.3557,-1.3556,-1.3556,-1.3556,-1.3556,0,-1.328,-1.3291,-1.3324,-1.3356,-1.3385,-1.3366,-1.339,-1.3416,-1.3456,-1.3476,-1.3506,-1.3552,-1.359,-1.36,-1.3636,-1.3663,-1.3657,-1.3673,-1.3672,-1.3675,-1.358,-1.3566,-1.3678,-1.3678,-1.3678,-1.3678,-1.3678,-1.3678,-1.3343,-1.3398,-1.3398,-1.3462,-1.3472,-1.3516,-1.3532,-1.3552,-1.3569,-1.3622,-1.3652,-1.3658,-1.3676,-1.3713,-1.3747,-1.3749,-1.3764,-1.3784,-1.3783,-1.3694,-1.3682,-1.367,-1.3657,-1.3786,-1.3787,-1.3876,-1.3877,-1.3877]},{"header":{"parameterUnit":"m.s-1","parameterCategory":1,"la1":30.2991,"la2":30.254,"lo1":-89.0895,"lo2":-89.0444,"dy":0.0017,"dx":0.0017,"nx":28,"ny":28,"refTime":"2025-09-17T09:00:00:Z","depth":0,"parameterNumber":3,"parameterNumberName":"V-component_of_WINDS"},"data":[0,0,0,0,0,0,0,0,0,0,0,0,0,0,0,0,0,0,0,0,0,0,0,0,0,0,0,0,0,0,0,0,0,0,0,0,0,0,0,0,0,0,0,0,0,0,0,0,0,0,0,0,0,0,0,0,0,0,-2.0147,-2.0147,0,-2.0148,-2.0148,-2.0148,-2.0127,-2.0127,-2.0126,-2.0126,-2.0126,-2.0126,-2.0127,0,0,0,0,0,0,0,0,0,0,0,0,0,-2.0129,-2.0129,-2.0147,-2.0147,-2.0147,-2.0148,-2.0148,-2.0148,-2.0128,-2.0127,-2.0126,-2.0126,-2.0126,-2.0126,-2.0127,0,0,0,0,0,0,0,0,0,0,0,0,0,-2.0134,-2.013,-2.0147,-2.0137,-2.0136,-2.0148,-2.0148,-2.0148,-2.0128,-2.0127,-2.0126,-2.0125,-2.0125,-2.0126,-2.0127,-2.0147,0,0,-2.0129,-2.0129,0,0,0,0,0,0,0,0,-2.0134,-2.0135,-2.0139,-2.0138,-2.0137,-2.0137,-2.0141,-2.0147,-2.0128,-2.0131,-2.0126,-2.0125,-2.013,-2.013,-2.0132,-2.0147,-2.0147,-2.0129,-2.013,-2.013,-2.013,0,0,0,0,0,0,0,-2.0133,-2.0134,-2.0147,-2.0139,-2.0138,-2.0133,-2.0133,-2.0142,-2.0135,-2.0131,-2.0129,-2.013,-2.0129,-2.0131,-2.0132,-2.0147,-2.0129,-2.013,-2.013,-2.013,-2.018,-2.0181,0,0,0,0,0,0,-2.0134,-2.0134,-2.0147,-2.0147,-2.0133,-2.0134,-2.0134,-2.0138,-2.0135,-2.0134,-2.013,-2.0129,-2.0131,-2.0131,-2.0132,-2.0156,-2.013,-2.0131,-2.0131,-2.0179,-2.018,-2.0181,0,0,0,0,0,0,-2.0134,-2.0136,-2.0147,-2.014,-2.0142,-2.0135,-2.014,-2.0138,-2.014,-2.0134,-2.0133,-2.0134,-2.013,-2.0131,-2.0144,-2.0156,-2.0131,-2.0132,-2.0178,-2.0179,-2.018,-2.0204,0,0,0,0,0,0,-2.0134,-2.0136,-2.0144,-2.0141,-2.0142,-2.0159,-2.014,-2.0139,-2.0141,-2.0139,-2.0137,-2.0136,-2.0129,-2.0143,-2.0144,-2.0156,-2.0132,-2.0177,-2.0178,-2.018,-2.0202,-2.0206,-2.0209,0,0,0,0,0,-2.0133,-2.015,-2.0144,-2.0146,-2.0152,-2.016,-2.0161,-2.0153,-2.0142,-2.015,-2.0147,-2.0136,-2.0154,-2.0144,-2.0146,-2.0158,-2.0176,-2.0178,-2.018,-2.0201,-2.0205,-2.0209,0,0,0,0,0,0,-2.0154,-2.0149,-2.0143,-2.0159,-2.016,-2.0157,-2.0166,-2.0158,-2.0162,-2.0159,-2.0149,-2.0149,-2.0163,-2.0162,-2.0151,-2.0178,-2.0163,-2.0166,-2.0178,-2.0183,-2.0186,-2.0186,-2.0133,0,0,0,0,0,-2.0161,-2.0168,-2.0164,-2.0179,-2.018,-2.0173,-2.0176,-2.017,-2.017,-2.0171,-2.0168,-2.0169,-2.0175,-2.0179,-2.0183,-2.0202,-2.0201,-2.0211,-2.0215,-2.0218,-2.022,-2.023,-2.0234,-2.0187,-2.0187,-2.0187,0,0,-2.0174,-2.0173,-2.0178,-2.0183,-2.0183,-2.0191,-2.0173,-2.0182,-2.0188,-2.0172,-2.0184,-2.0182,-2.0182,-2.0198,-2.0205,-2.0198,-2.0233,-2.022,-2.0222,-2.0223,-2.0232,-2.0236,-2.024,-2.0189,-2.0188,-2.0188,0,0,-2.0203,-2.0203,-2.0215,-2.0216,-2.0216,-2.0212,-2.0215,-2.0212,-2.0211,-2.0223,-2.0211,-2.0218,-2.0228,-2.0228,-2.023,-2.026,-2.025,-2.0262,-2.028,-2.029,-2.0294,-2.0297,-2.0307,-2.0311,-2.0264,-2.0264,-2.0264,0,-2.022,-2.0231,-2.0223,-2.0233,-2.0235,-2.0221,-2.0234,-2.0235,-2.0237,-2.0239,-2.0231,-2.0243,-2.0242,-2.0258,-2.0266,-2.0267,-2.027,-2.0262,-2.0294,-2.0297,-2.03,-2.031,-2.0314,-2.0265,-2.0265,-2.0265,-2.0265,0,-2.0252,-2.026,-2.027,-2.0273,-2.0277,-2.0288,-2.0281,-2.0286,-2.0279,-2.0276,-2.0288,-2.0287,-2.0292,-2.0295,-2.0288,-2.031,-2.0305,-2.0296,-2.028,-2.0306,-2.0315,-2.0319,-2.0267,-2.0267,-2.0266,-2.0266,0,0,-2.0293,-2.0292,-2.0295,-2.0297,-2.0296,-2.0302,-2.0313,-2.0318,-2.0322,-2.0324,-2.0333,-2.0342,-2.0333,-2.0335,-2.0329,-2.0337,-2.0361,-2.0326,-2.0326,-2.0333,-2.0385,-2.0392,-2.0397,-2.0355,-2.0355,-2.0356,-2.0385,0,-2.0321,-2.034,-2.0333,-2.0352,-2.0359,-2.0346,-2.0356,-2.0357,-2.0354,-2.036,-2.0356,-2.0363,-2.0351,-2.0352,-2.036,-2.0356,-2.0371,-2.0354,-2.0363,-2.0363,-2.0363,-2.0401,-2.0409,-2.0436,-2.0388,-2.0389,-2.0389,0,-2.0356,-2.036,-2.038,-2.0379,-2.0382,-2.039,-2.0394,-2.04,-2.0401,-2.0398,-2.04,-2.0392,-2.0403,-2.0388,-2.0402,-2.0391,-2.0394,-2.0393,-2.0394,-2.0394,-2.0378,-2.0403,-2.0445,-2.0449,-2.0395,-2.0394,-2.0394,0,-2.0385,-2.0395,-2.0408,-2.0409,-2.0408,-2.0415,-2.0414,-2.0414,-2.0418,-2.0421,-2.0423,-2.0428,-2.043,-2.0434,-2.0427,-2.0417,-2.0443,-2.0427,-2.0441,-2.0441,-2.0446,-2.0446,-2.0489,-2.0449,-2.0448,-2.0448,-2.0448,0,-2.0417,-2.0429,-2.0421,-2.0429,-2.0443,-2.0434,-2.0448,-2.0447,-2.0447,-2.0454,-2.0444,-2.0451,-2.0442,-2.0448,-2.0443,-2.0456,-2.0457,-2.0455,-2.0453,-2.0456,-2.0456,-2.0458,-2.0455,-2.0449,-2.0449,-2.0449,-2.0449,0,-2.045,-2.0445,-2.0459,-2.0457,-2.0457,-2.0467,-2.0465,-2.0473,-2.0469,-2.0479,-2.0481,-2.0475,-2.0482,-2.0476,-2.0483,-2.0479,-2.0496,-2.0492,-2.0496,-2.0495,-2.0509,-2.0507,-2.0554,-2.056,-2.0516,-2.0516,-2.0516,0,-2.0471,-2.0481,-2.048,-2.0484,-2.0485,-2.0492,-2.0496,-2.0488,-2.0492,-2.0494,-2.0501,-2.0507,-2.0512,-2.0524,-2.052,-2.0525,-2.0521,-2.0537,-2.0522,-2.0524,-2.0521,-2.0521,-2.0522,-2.054,-2.0541,-2.0541,-2.0542,0,-2.0508,-2.0505,-2.0511,-2.0516,-2.0521,-2.0524,-2.0527,-2.0531,-2.0523,-2.0529,-2.0536,-2.0539,-2.0546,-2.0553,-2.0557,-2.0556,-2.0548,-2.0547,-2.055,-2.0552,-2.0554,-2.0553,-2.0504,-2.0545,-2.0545,-2.0545,-2.0544,-2.0544,-2.0536,-2.0544,-2.0545,-2.0552,-2.0553,-2.0556,-2.0563,-2.056,-2.0566,-2.0572,-2.0567,-2.0576,-2.0576,-2.0581,-2.0582,-2.0588,-2.0582,-2.0587,-2.0588,-2.0589,-2.0591,-2.0554,-2.0589,-2.0589,-2.0589,-2.0589,-2.0589,0,-2.0573,-2.0573,-2.0579,-2.0583,-2.0589,-2.0581,-2.0583,-2.0588,-2.0596,-2.0598,-2.0603,-2.0611,-2.0617,-2.0615,-2.062,-2.0626,-2.0622,-2.0628,-2.0627,-2.0627,-2.0597,-2.0593,-2.0631,-2.0631,-2.0631,-2.0631,-2.0631,-2.063,-2.0592,-2.0605,-2.0603,-2.0616,-2.0616,-2.0625,-2.0627,-2.063,-2.0631,-2.0641,-2.0646,-2.0645,-2.0645,-2.065,-2.0655,-2.0654,-2.0657,-2.0664,-2.0661,-2.0633,-2.0629,-2.0625,-2.0622,-2.0664,-2.0664,-2.0691,-2.0691,-2.0691]}]]